Location: Ponte Samoggia
(44.5667°N, 11.1333°E)
Time: 00:11:19
(UTC+00:00)

Cosmos 1867 - Pass Details

Date: 26 May 2022
Orbit: 775 x 801 km, 65.0° (Epoch: 26 June)

Event Time Altitude Azimuth Distance (km) Brightness Sun altitude
Exits shadow 00:05:01 34° 255° (WSW) 1,280 4.4 -23.3°
Maximum altitude 00:07:02 52° 310° (NW) 989 4.1 -23.2°
Drops below altitude 10° 00:12:23 10° 27° (NNE) 2,383 7.1 -22.9°
Sets 00:14:54 0° 33° (NNE) 3,317 8.1 -22.8°
